This is the latest recevied weather packets stored in our database for station/object BARLOW-WX. If no packets are shown the sender has not sent any weather packets the latest 10 day(s).
| Time | Temp. | Humidity | Pressure | Rain* | Wind** | Luminosity | Snow |
|---|---|---|---|---|---|---|---|
| 1787969776 | 18.89° C | 62% | 992.4 hPa | 0 mm | - | - | - |
| 1787968879 | 19.44° C | 62% | 992.4 hPa | 0 mm | - | - | - |
| 1787967975 | 19.44° C | 59% | 992 hPa | 0 mm | - | - | - |
| 1787967078 | 20° C | 59% | 992 hPa | 0 mm | - | - | - |
| 1787966176 | 20° C | 59% | 992 hPa | 0 mm | - | - | - |
| 1787965279 | 20.56° C | 59% | 992 hPa | 0 mm | - | - | - |
| 1787964375 | 20.56° C | 58% | 992 hPa | 0 mm | - | - | - |
| 1787963477 | 21.11° C | 57% | 992.5 hPa | 0 mm | - | - | - |
| 1787962578 | 21.67° C | 57% | 992.5 hPa | 0 mm | - | - | - |
| 1787961699 | 22.22° C | 57% | 992.5 hPa | 0 mm | - | - | - |
| 1787960778 | 22.78° C | 51% | 991.9 hPa | 0 mm | - | - | - |
| 1787959882 | 23.33° C | 54% | 992.3 hPa | 0 mm | - | - | - |
| 1787958980 | 23.33° C | 54% | 992.3 hPa | 0 mm | - | - | - |
| 1787958079 | 23.89° C | 54% | 992.3 hPa | 0 mm | - | - | - |
| 1787957178 | 24.44° C | 53% | 992.1 hPa | 0 mm | - | - | - |
| 1787956279 | 24.44° C | 41% | 992.6 hPa | 0 mm | - | - | - |
| 1787955382 | 25° C | 41% | 992.7 hPa | 0 mm | - | - | - |
| 1787954481 | 25.56° C | 41% | 992.7 hPa | 0 mm | - | - | - |
| 1787953581 | 25.56° C | 39% | 992.9 hPa | 0 mm | - | - | - |
| 1787952682 | 25.56° C | 31% | 993.1 hPa | 0 mm | - | - | - |
| 1787951782 | 25° C | 31% | 993 hPa | 0 mm | - | - | - |
| 1787950880 | 25° C | 31% | 993 hPa | 0 mm | - | - | - |
| 1787949981 | 25° C | 35% | 992.5 hPa | 0 mm | - | - | - |
| 1787949080 | 25° C | 36% | 992.5 hPa | 0 mm | - | - | - |
| 1787948181 | 25° C | 36% | 992.5 hPa | 0 mm | - | - | - |
* Rain latest hour (hover to see other rain measurements)
** Current wind speed in m/s (hover to see current wind gust speed)